Weather History for Pleasanton, TX

Change the Weather History Date:

Sunday, September 8, 2013

  Actual Average Record
Temperature  
Mean Temperature 80 °F -  
Max Temperature 89 °F 92 °F 100 °F (1992)
Min Temperature 72 °F 72 °F 60 °F (2011)
Cooling Degree Days 15    
Growing Degree Days 30 (Base 50)    
Moisture  
Dew Point 71 °F    
Average Humidity 82    
Maximum Humidity 95    
Minimum Humidity 53    
Precipitation  
Precipitation 0.14 in - - ()
Sea Level Pressure  
Sea Level Pressure 29.94 in    
Wind  
Wind Speed 4 mph (East)    
Max Wind Speed 15 mph    
Max Gust Speed 21 mph    
Visibility 10 miles    
Events Rain , Thunderstorm    
Averages and records for this station are not official NWS values.
T = Trace of Precipitation, MM = Missing Value Source: NWS Daily Summary

Daily Weather History Graph

Daily Weather History Graph

Search for Another Location

Airport:

Trip Planner

Search our weather history database for the weather conditions in past years. The results will help you decide how hot, cold, wet, or windy it might be!

Date:

Astronomy

Sep. 08, 2013 Rise Set
Actual Time 7:15 AM CDT 7:47 PM CDT
Civil Twilight 6:51 AM CDT 8:10 PM CDT
Nautical Twilight 6:23 AM CDT 8:38 PM CDT
Astronomical Twilight 5:55 AM CDT 9:07 PM CDT
Moon 10:14 AM CDT (9/8) 9:45 PM CDT (9/8)
Length of Visible Light 13h 19m
Length of Day
12h 31m
Waxing Crescent, 11% of the Moon is Illuminated
Sep 8
Waxing Crescent
Sep 12
First Quarter
Sep 19
Full
Sep 26
Last Quarter
Oct 4
New

Hourly Weather History & Observations

Time (CDT) Temp. Heat Index Dew Point Humidity Pressure Visibility Wind Dir Wind Speed Gust Speed Precip Events Conditions
12:15 AM 77.7 °F - 70.9 °F 79% 29.95 in 10.0 mi East 3.5 mph - N/A   Clear
12:35 AM 77.5 °F - 71.2 °F 81% 29.96 in 10.0 mi East 4.6 mph - N/A   Scattered Clouds
12:55 AM 77.0 °F - 71.2 °F 82% 29.96 in 10.0 mi East 4.6 mph - N/A   Scattered Clouds
1:15 AM 77.0 °F - 71.6 °F 83% 29.96 in 10.0 mi East 5.8 mph - N/A   Clear
1:35 AM 77.0 °F - 71.6 °F 83% 29.96 in 10.0 mi East 4.6 mph - N/A   Clear
1:55 AM 76.5 °F - 71.8 °F 85% 29.96 in 10.0 mi ENE 3.5 mph - N/A   Clear
2:15 AM 76.6 °F - 72.5 °F 87% 29.96 in 10.0 mi ENE 3.5 mph - N/A   Scattered Clouds
2:35 AM 76.3 °F - 72.5 °F 88% 29.96 in 10.0 mi Calm Calm - N/A   Scattered Clouds
2:55 AM 76.5 °F - 72.9 °F 89% 29.95 in 10.0 mi East 4.6 mph - N/A   Scattered Clouds
3:15 AM 76.1 °F - 72.7 °F 89% 29.96 in 10.0 mi Calm Calm - N/A   Scattered Clouds
3:35 AM 75.6 °F - 72.5 °F 90% 29.96 in 10.0 mi East 3.5 mph - N/A   Clear
3:55 AM 75.6 °F - 72.9 °F 91% 29.96 in 10.0 mi Calm Calm - N/A   Scattered Clouds
4:15 AM 75.2 °F - 72.5 °F 91% 29.96 in 10.0 mi NE 3.5 mph - N/A   Scattered Clouds
4:35 AM 74.8 °F - 72.5 °F 92% 29.95 in 10.0 mi Calm Calm - N/A   Scattered Clouds
4:55 AM 74.7 °F - 72.1 °F 92% 29.93 in 10.0 mi Calm Calm - N/A   Scattered Clouds
5:15 AM 73.6 °F - 71.4 °F 93% 29.93 in 10.0 mi West 3.5 mph - N/A   Clear
5:35 AM 73.2 °F - 71.2 °F 93% 29.93 in 10.0 mi Calm Calm - N/A   Clear
5:55 AM 72.9 °F - 71.1 °F 94% 29.93 in 10.0 mi Calm Calm - N/A   Clear
6:15 AM 73.0 °F - 71.6 °F 95% 29.94 in 10.0 mi Calm Calm - N/A   Clear
6:35 AM 72.9 °F - 71.2 °F 95% 29.94 in 10.0 mi Calm Calm - N/A   Clear
6:55 AM 72.5 °F - 71.1 °F 95% 29.94 in 10.0 mi Calm Calm - N/A   Clear
7:15 AM 72.5 °F - 71.1 °F 95% 29.95 in 5.0 mi NNE 3.5 mph - N/A   Scattered Clouds
7:35 AM 73.6 °F - 72.1 °F 95% 29.96 in 5.0 mi NNE 3.5 mph - N/A   Overcast
7:55 AM 74.3 °F - 72.9 °F 95% 29.96 in 5.0 mi NE 4.6 mph - N/A   Mostly Cloudy
8:15 AM 74.8 °F - 73.4 °F 95% 29.97 in 7.0 mi NE 5.8 mph - N/A   Scattered Clouds
8:35 AM 76.3 °F - 73.6 °F 91% 29.98 in 10.0 mi ENE 4.6 mph - N/A   Clear
8:55 AM 78.4 °F - 73.4 °F 84% 29.98 in 7.0 mi NE 4.6 mph - N/A   Mostly Cloudy
9:15 AM 79.7 °F - 73.2 °F 80% 29.98 in 10.0 mi ENE 3.5 mph - N/A   Scattered Clouds
9:35 AM 81.7 °F 86.7 °F 72.9 °F 74% 29.97 in 10.0 mi Calm Calm - N/A   Scattered Clouds
9:55 AM 81.5 °F 86.1 °F 72.1 °F 73% 29.97 in 10.0 mi ENE 3.5 mph - N/A   Mostly Cloudy
10:15 AM 82.2 °F 86.9 °F 71.6 °F 70% 29.97 in 10.0 mi ESE 5.8 mph - N/A   Mostly Cloudy
10:35 AM 86.0 °F 91.8 °F 71.8 °F 62% 29.97 in 10.0 mi ENE 5.8 mph - N/A   Mostly Cloudy
10:55 AM 84.6 °F 89.4 °F 70.9 °F 63% 29.97 in 10.0 mi NE 5.8 mph - N/A Thunderstorm Scattered Clouds
11:15 AM 84.0 °F 88.4 °F 70.3 °F 63% 29.97 in 10.0 mi Calm Calm - N/A   Mostly Cloudy
11:35 AM 84.0 °F 88.7 °F 70.9 °F 64% 29.97 in 10.0 mi ESE 3.5 mph - N/A   Light Drizzle
11:55 AM 79.2 °F - 72.0 °F 78% 29.97 in 4.0 mi SSE 8.1 mph - 0.07 in Rain Rain
12:15 PM 79.3 °F - 72.7 °F 80% 29.97 in 10.0 mi SE 5.8 mph - N/A   Overcast
12:35 PM 84.0 °F 89.3 °F 71.8 °F 66% 29.96 in 10.0 mi SE 3.5 mph - N/A   Scattered Clouds
12:55 PM 87.4 °F 92.7 °F 70.7 °F 57% 29.94 in 10.0 mi SE 4.6 mph - N/A   Clear
1:15 PM 86.9 °F 91.3 °F 69.6 °F 56% 29.94 in 10.0 mi East 3.5 mph - N/A Thunderstorm Mostly Cloudy
1:35 PM 88.9 °F 93.8 °F 69.8 °F 53% 29.93 in 10.0 mi NNE 15.0 mph 18.4 mph N/A Thunderstorm Mostly Cloudy
1:55 PM 86.2 °F 89.7 °F 68.4 °F 55% 29.93 in 10.0 mi NE 6.9 mph - N/A   Mostly Cloudy
2:15 PM 86.0 °F 89.7 °F 68.9 °F 56% 29.92 in 10.0 mi East 15.0 mph 20.7 mph N/A   Mostly Cloudy
2:35 PM 82.8 °F 86.0 °F 68.4 °F 62% 29.93 in 10.0 mi SE 9.2 mph - N/A Rain , Thunderstorm Light Thunderstorms and Rain
2:55 PM 76.5 °F - 70.2 °F 81% 29.95 in 10.0 mi SSE 8.1 mph - N/A Rain Light Rain
3:15 PM 75.7 °F - 71.4 °F 86% 29.95 in 10.0 mi ESE 6.9 mph - 0.01 in Rain , Thunderstorm Light Thunderstorms and Rain
3:35 PM 75.6 °F - 70.7 °F 85% 29.96 in 10.0 mi East 15.0 mph 19.6 mph 0.01 in Thunderstorm Unknown
3:55 PM 72.0 °F - 68.0 °F 87% 29.93 in 7.0 mi East 5.8 mph - 0.07 in Rain , Thunderstorm Rain
4:15 PM 72.5 °F - 67.6 °F 85% 29.91 in 10.0 mi SE 5.8 mph - N/A Rain , Thunderstorm Light Thunderstorms and Rain
4:35 PM 72.9 °F - 68.9 °F 87% 29.91 in 10.0 mi East 4.6 mph - N/A   Light Drizzle
4:55 PM 73.9 °F - 70.5 °F 89% 29.90 in 10.0 mi Calm Calm - N/A Rain , Thunderstorm Light Thunderstorms and Rain
5:15 PM 74.7 °F - 70.5 °F 87% 29.89 in 10.0 mi SSE 3.5 mph - N/A   Clear
5:35 PM 75.0 °F - 70.9 °F 87% 29.90 in 10.0 mi Calm Calm - N/A   Clear
5:55 PM 75.6 °F - 71.6 °F 87% 29.89 in 10.0 mi East 3.5 mph - N/A   Clear
6:15 PM 76.1 °F - 71.8 °F 86% 29.90 in 10.0 mi East 3.5 mph - N/A   Clear
6:35 PM 77.0 °F - 72.0 °F 84% 29.91 in 10.0 mi East 3.5 mph - N/A   Clear
6:55 PM 78.8 °F - 70.2 °F 75% 29.91 in 10.0 mi ENE 4.6 mph - N/A   Clear
7:15 PM 78.3 °F - 70.2 °F 76% 29.92 in 10.0 mi NE 4.6 mph - N/A   Clear
7:35 PM 77.0 °F - 70.7 °F 81% 29.92 in 10.0 mi Calm Calm - N/A   Clear
7:55 PM 76.6 °F - 70.0 °F 80% 29.93 in 10.0 mi Calm Calm - N/A   Clear
8:15 PM 76.1 °F - 70.3 °F 82% 29.92 in 10.0 mi Calm Calm - N/A   Clear
8:35 PM 75.9 °F - 70.2 °F 82% 29.92 in 10.0 mi Calm Calm - N/A   Clear
8:55 PM 75.2 °F - 70.5 °F 85% 29.92 in 10.0 mi Calm Calm - N/A   Clear
9:15 PM 74.7 °F - 70.7 °F 87% 29.93 in 10.0 mi Calm Calm - N/A   Clear
9:35 PM 75.4 °F - 71.1 °F 86% 29.93 in 10.0 mi ENE 6.9 mph - N/A   Scattered Clouds
9:55 PM 76.1 °F - 71.6 °F 86% 29.94 in 10.0 mi East 6.9 mph - N/A   Mostly Cloudy
10:15 PM 76.3 °F - 71.6 °F 85% 29.94 in 10.0 mi East 5.8 mph - N/A   Scattered Clouds
10:35 PM 75.7 °F - 71.2 °F 86% 29.94 in 10.0 mi East 5.8 mph - N/A   Clear
10:55 PM 75.2 °F - 70.9 °F 86% 29.94 in 10.0 mi East 3.5 mph - N/A   Clear
11:15 PM 74.7 °F - 70.9 °F 88% 29.94 in 10.0 mi Calm Calm - N/A   Clear
11:35 PM 73.9 °F - 70.9 °F 90% 29.94 in 10.0 mi East 3.5 mph - N/A   Clear
11:55 PM 73.6 °F - 71.1 °F 92% 29.93 in 10.0 mi Calm Calm - N/A   Clear